LiveATC.Net - Listen to live air traffic control over the Internet!


ICAO: ULLI  IATA: LED   Airport: Pulkovo Airport
City: Saint Petersburg
Country: Russia   Continent: Europe
ULLI METAR Weather: ULLI 020300Z 00000MPS CAVOK 18/17 Q1017 R28L/090060 NOSIG
ULLI Flight Activity (FlightAware)
ULLI Gnd/Twr/App
Feed Status: DOWN
Last heard on: 2016-06-29 18:44:04 (2 days 9 hours 5 minutes ago)
ULLI Gnd/Twr/App Audio Archives
FacilityFrequency
Circle120.300
St. Petersburg Approach119.300
St. Petersburg Approach125.900
St. Petersburg Control135.600
St. Petersburg Tower118.100
St. Petersburg Tower118.700
St. Petersburg Transit131.800


NOTICE

Unauthorized use prohibited. See LiveATC.net Terms of Service


Find LiveATC Audio Streams


Airport/ARTCC Code

Frequency
(e.g., 124.400, 128.75)
Site-wide search

Browse LiveATC Feeds
LiveATC Coverage Map
Top 50 LiveATC Feeds
Bad Weather Areas

LiveATC FAQ
Offer a LiveATC Feed
Contact LiveATC.net
Press Inquiries

LiveATC on iPhone
LiveATC on Android

Windows Phone
Windows 8/10

LiveATC Mobile
(Mobile browser)

ATC Audio Archives
Interesting Recordings

LiveATC Forums


Home Page
About LiveATC.net
Make a Donation
LiveATC Store

Terms of Use
Privacy Policy

Canadian Air Freqs

AIRMETs/SIGMETs

FAA Airport Status
Nat'l Airspace Status
Arrival Demand Charts


Server Software By:
Icecast.org
Liquidsoap